Hourly Weather Roundup
Issued by NWS Central Illinois

Home | Current Version | Previous Version | Text Only | Print | Product List | Glossary On
Versions: 1 2 3 4 5 6 7 8 9 10 11 12 13 14 15 16 17 18 19 20 21 22 23 24 25 26 27 28 29 30 31 32 33 34 35 36 37 38 39 40 41 42 43 44 45 46 47 48 49 50
000
NZUS43 KILX 230510
HWRILX

Area Weather Roundup
National Weather Service Lincoln IL
1200 AM CDT SUN JUL 23 2017

NOTE:  "FAIR" indicates few or no clouds below 12,000 feet, with
       no sigificant weather and/or obstructions to visibility.


CITY           SKY/WX    TMP DP  RH WIND       PRES   REMARKS
Bloomington    PTCLDY    76  74  93 N7        29.83S
Champaign      CLOUDY    79  76  90 E8        29.82R HX  83
Danville       CLOUDY    76  75  97 E3        29.80S
Decatur        MOCLDY    79  76  90 CALM      29.81S HX  83
Effingham      PTCLDY    83  75  75 SE3       29.80F HX  90
Flora          CLOUDY    83  76  79 SW7       29.80F HX  91
Galesburg      CLOUDY    76  75  97 CALM      29.84S
Jacksonville   CLEAR     79  77  94 CALM      29.81R HX  84
Lacon          CLEAR     74  74 100 CALM      29.80S
Lawrenceville  MOCLDY    83  73  72 E8        29.81F HX  89
Litchfield     PTCLDY    81  76  86 S3        29.79S HX  87
$$


CITY           SKY/WX    TMP DP  RH WIND       PRES   REMARKS
Lincoln        CLEAR     78  77  99 CALM      29.81R
Macomb         MOCLDY    77  75  93 N5        29.85S
Mattoon        CLOUDY    76  75  97 VRB3      29.81S THUNDER
Mt Carmel AP   CLOUDY    83  74  74 SW10      29.80F HX  89
Olney-Noble AP CLOUDY    77  72  84 SE9G60    29.80F THUNDER
Paris AP       TSTM      75  75  98 S9        29.84R
Peoria         PTCLDY    79  77  94 CALM      29.81F HX  83
Pontiac        CLEAR     74  74  98 SE3       29.82S
Rantoul        PTCLDY    79  77  95 E3        29.82F HX  83
Robinson       CLOUDY    73  69  86 N18       29.83S THUNDER
Springfield    CLEAR     81  79  94 CALM      29.81R HX  90
Taylorville    PTCLDY    79  78  97 CALM      29.79F HX  83
$$

...REGIONAL REPORTS...


CITY           SKY/WX    TMP DP  RH WIND       PRES   REMARKS
Chicago O`Hare PTCLDY    74  68  81 SE6       29.79F
Kankakee       CLOUDY    75  75 100 CALM      29.82S
Moline         CLOUDY    75  72  90 CALM      29.81F
Mount Sterling CLOUDY    78  77  96 N3        29.83R HX  81
Mount Vernon   CLEAR     85  76  74 SW12      29.81S HX  94
Pittsfield     CLOUDY    82  80  91 N5        29.83R HX  93
Quincy         CLOUDY    81  78  91 N6        29.83R HX  89
Rockford       CLOUDY    76  73  91 CALM      29.82F
$$


CITY           SKY/WX    TMP DP  RH WIND       PRES   REMARKS
Burlington     CLOUDY    79  77  94 N5        29.84R HX  83
Cedar Rapids   CLOUDY    72  72 100 NW5       29.84S
Des Moines     MOCLDY    79  75  87 W5        29.87S HX  83
Kirksville     CLOUDY    78  74  87 N8        29.88S HX  81
Ottumwa        MOCLDY    76  74  93 NW5       29.87R
St Louis       CLOUDY    89  73  59 S9        29.82S HX  97
$$


CITY           SKY/WX    TMP DP  RH WIND       PRES   REMARKS
Terre Haute    TSTM      72  69  90 SW5       29.83R
Evansville     PTCLDY    84  74  71 SW10      29.83S HX  91
Indianapolis   TSTM      76  74  93 SE6       29.82F
Lafayette      MOCLDY    75  74  96 CALM      29.81S
Madison        CLEAR     69  68  96 W3        29.81R FOG
Milwaukee      PTCLDY    72  69  90 SW5       29.80F
$$






USA.gov is the U.S. government's official web portal to all federal, state and local government web resources and services.